Time,TemperatureF,DewpointF,PressureIn,WindDirection,WindDirectionDegrees,WindSpeedMPH,WindSpeedGustMPH,Humidity,HourlyPrecipIn,Conditions,Clouds,dailyrainin,SoftwareType,DateUTC
2013-08-09 00:05:00,71.3,71.0,29.89,WSW,258,0.0,0.0,99,0.00,,,0.00,Wunderground v.1.15,2013-08-09 04:05:00,
2013-08-09 00:10:00,71.3,71.0,29.89,WSW,258,0.0,0.0,99,0.00,,,0.00,Wunderground v.1.15,2013-08-09 04:10:00,
2013-08-09 00:15:00,71.3,71.0,29.89,WSW,258,0.0,0.0,99,0.00,,,0.00,Wunderground v.1.15,2013-08-09 04:15:00,
2013-08-09 00:25:00,71.3,71.0,29.89,WSW,258,0.0,0.0,99,0.00,,,0.00,Wunderground v.1.15,2013-08-09 04:25:00,
2013-08-09 00:30:00,71.2,70.9,29.88,WSW,258,0.0,0.0,99,0.00,,,0.00,Wunderground v.1.15,2013-08-09 04:30:00,
2013-08-09 00:40:00,71.3,71.0,29.88,WSW,258,0.0,0.0,99,0.00,,,0.00,Wunderground v.1.15,2013-08-09 04:40:00,
2013-08-09 00:45:00,71.3,71.0,29.88,WSW,258,0.0,0.0,99,0.00,,,0.00,Wunderground v.1.15,2013-08-09 04:45:00,
2013-08-09 00:55:00,71.2,70.9,29.88,WSW,258,0.0,0.0,99,0.00,,,0.00,Wunderground v.1.15,2013-08-09 04:55:00,
2013-08-09 01:05:00,71.3,71.0,29.88,WSW,258,0.0,0.0,99,0.00,,,0.00,Wunderground v.1.15,2013-08-09 05:05:00,
2013-08-09 01:15:00,71.2,70.9,29.87,WSW,258,0.0,0.0,99,0.00,,,0.01,Wunderground v.1.15,2013-08-09 05:15:00,
2013-08-09 01:20:00,71.3,71.0,29.87,WSW,258,0.0,0.0,99,0.07,,,0.02,Wunderground v.1.15,2013-08-09 05:20:00,
2013-08-09 01:25:00,71.2,70.9,29.87,WSW,258,0.0,0.0,99,0.07,,,0.02,Wunderground v.1.15,2013-08-09 05:25:00,
2013-08-09 01:35:00,71.2,70.9,29.87,WSW,258,0.0,0.0,99,0.04,,,0.02,Wunderground v.1.15,2013-08-09 05:35:00,
2013-08-09 01:45:00,71.2,70.9,29.86,WSW,258,0.0,0.0,99,0.00,,,0.03,Wunderground v.1.15,2013-08-09 05:45:00,
2013-08-09 01:55:00,71.2,70.9,29.86,WSW,258,0.0,0.0,99,0.00,,,0.03,Wunderground v.1.15,2013-08-09 05:55:00,
2013-08-09 02:05:00,71.2,70.9,29.86,WSW,258,0.0,0.0,99,0.00,,,0.03,Wunderground v.1.15,2013-08-09 06:05:00,
2013-08-09 02:15:00,71.2,70.9,29.86,WSW,258,0.0,0.0,99,0.00,,,0.03,Wunderground v.1.15,2013-08-09 06:15:00,
2013-08-09 02:20:00,71.1,70.8,29.86,WSW,258,0.0,0.0,99,0.00,,,0.03,Wunderground v.1.15,2013-08-09 06:20:00,
2013-08-09 02:30:00,71.1,70.8,29.86,WSW,258,0.0,0.0,99,0.00,,,0.03,Wunderground v.1.15,2013-08-09 06:30:00,
2013-08-09 02:40:00,71.1,70.8,29.86,WSW,258,0.0,0.0,99,0.00,,,0.03,Wunderground v.1.15,2013-08-09 06:40:00,
2013-08-09 02:45:00,71.0,70.7,29.86,WSW,258,0.0,0.0,99,0.00,,,0.04,Wunderground v.1.15,2013-08-09 06:45:00,
2013-08-09 02:55:00,71.0,70.7,29.85,WSW,258,0.0,0.0,99,0.00,,,0.04,Wunderground v.1.15,2013-08-09 06:55:00,
2013-08-09 03:05:00,70.9,70.6,29.86,WSW,258,0.0,0.0,99,0.00,,,0.04,Wunderground v.1.15,2013-08-09 07:05:00,
2013-08-09 03:15:00,70.7,70.4,29.86,WSW,258,0.0,0.0,99,0.00,,,0.04,Wunderground v.1.15,2013-08-09 07:15:00,
2013-08-09 03:25:00,70.7,70.4,29.85,WSW,258,0.0,0.0,99,0.00,,,0.04,Wunderground v.1.15,2013-08-09 07:25:00,
2013-08-09 03:35:00,70.7,70.4,29.85,WSW,258,0.0,0.0,99,0.00,,,0.04,Wunderground v.1.15,2013-08-09 07:35:00,
2013-08-09 03:45:00,70.6,70.3,29.86,WSW,258,0.0,0.0,99,0.00,,,0.04,Wunderground v.1.15,2013-08-09 07:45:00,
2013-08-09 03:55:00,70.5,70.2,29.86,WSW,258,0.0,0.0,99,0.00,,,0.04,Wunderground v.1.15,2013-08-09 07:55:00,
2013-08-09 04:05:00,70.3,70.0,29.86,WSW,258,0.0,0.0,99,0.00,,,0.04,Wunderground v.1.15,2013-08-09 08:05:00,
2013-08-09 04:15:00,70.1,69.8,29.85,WSW,258,0.0,0.0,99,0.00,,,0.04,Wunderground v.1.15,2013-08-09 08:15:00,
2013-08-09 04:20:00,70.1,69.8,29.86,WSW,258,0.0,1.0,99,0.00,,,0.04,Wunderground v.1.15,2013-08-09 08:20:00,
2013-08-09 04:30:00,70.0,69.7,29.86,WSW,258,0.0,0.0,99,0.00,,,0.04,Wunderground v.1.15,2013-08-09 08:30:00,
2013-08-09 04:40:00,70.0,69.7,29.85,WSW,258,0.0,0.0,99,0.00,,,0.04,Wunderground v.1.15,2013-08-09 08:40:00,
2013-08-09 04:45:00,69.9,69.6,29.86,WSW,258,0.0,0.0,99,0.00,,,0.04,Wunderground v.1.15,2013-08-09 08:45:00,
2013-08-09 04:55:00,69.9,69.6,29.86,WSW,258,0.0,0.0,99,0.00,,,0.04,Wunderground v.1.15,2013-08-09 08:55:00,
2013-08-09 05:05:00,69.9,69.6,29.86,WSW,258,0.0,0.0,99,0.00,,,0.04,Wunderground v.1.15,2013-08-09 09:05:00,
2013-08-09 05:15:00,70.0,69.7,29.85,WSW,258,0.0,0.0,99,0.00,,,0.04,Wunderground v.1.15,2013-08-09 09:15:00,
2013-08-09 05:25:00,70.0,69.7,29.85,WSW,258,0.0,0.0,99,0.00,,,0.04,Wunderground v.1.15,2013-08-09 09:25:00,
2013-08-09 05:30:00,69.9,69.6,29.85,WSW,258,0.0,0.0,99,0.00,,,0.05,Wunderground v.1.15,2013-08-09 09:30:00,
2013-08-09 05:40:00,69.9,69.6,29.85,NW,318,0.0,1.0,99,0.00,,,0.05,Wunderground v.1.15,2013-08-09 09:40:00,
2013-08-09 05:45:00,70.1,69.8,29.85,NW,318,0.0,1.0,99,0.00,,,0.05,Wunderground v.1.15,2013-08-09 09:45:00,
2013-08-09 05:55:00,70.2,69.9,29.85,NW,318,1.0,1.0,99,0.00,,,0.05,Wunderground v.1.15,2013-08-09 09:55:00,
2013-08-09 06:05:00,70.0,69.7,29.85,NW,318,0.0,1.0,99,0.00,,,0.05,Wunderground v.1.15,2013-08-09 10:05:00,
2013-08-09 06:15:00,69.9,69.6,29.86,NW,318,0.0,0.0,99,0.00,,,0.06,Wunderground v.1.15,2013-08-09 10:15:00,
2013-08-09 06:25:00,70.1,69.8,29.86,NW,318,0.0,1.0,99,0.00,,,0.06,Wunderground v.1.15,2013-08-09 10:25:00,
2013-08-09 06:35:00,70.2,69.9,29.86,NW,318,0.0,1.0,99,0.00,,,0.06,Wunderground v.1.15,2013-08-09 10:35:00,
2013-08-09 06:45:00,70.2,69.9,29.86,NW,318,0.0,0.0,99,0.00,,,0.07,Wunderground v.1.15,2013-08-09 10:45:00,
2013-08-09 06:55:00,70.2,69.9,29.86,NW,318,0.0,0.0,99,0.29,,,0.09,Wunderground v.1.15,2013-08-09 10:55:00,
2013-08-09 07:05:00,70.2,69.9,29.87,NW,318,0.0,0.0,99,0.06,,,0.10,Wunderground v.1.15,2013-08-09 11:05:00,
2013-08-09 07:15:00,70.3,70.0,29.86,NW,318,0.0,0.0,99,0.13,,,0.13,Wunderground v.1.15,2013-08-09 11:15:00,
2013-08-09 07:25:00,70.4,70.1,29.86,NW,318,0.0,0.0,99,0.04,,,0.13,Wunderground v.1.15,2013-08-09 11:25:00,
2013-08-09 07:35:00,70.5,70.2,29.86,NW,318,0.0,0.0,99,0.00,,,0.13,Wunderground v.1.15,2013-08-09 11:35:00,
2013-08-09 07:40:00,70.7,70.4,29.86,NW,318,0.0,0.0,99,0.00,,,0.13,Wunderground v.1.15,2013-08-09 11:40:00,
2013-08-09 07:50:00,70.9,70.6,29.87,NW,318,0.0,0.0,99,0.00,,,0.13,Wunderground v.1.15,2013-08-09 11:50:00,
2013-08-09 08:00:00,71.4,71.1,29.86,NW,318,0.0,0.0,99,0.00,,,0.13,Wunderground v.1.15,2013-08-09 12:00:00,
2013-08-09 08:05:00,71.8,71.5,29.85,NNE,30,0.0,0.0,99,0.00,,,0.13,Wunderground v.1.15,2013-08-09 12:05:00,
2013-08-09 08:15:00,72.0,72.0,29.86,NNE,30,0.0,0.0,100,0.00,,,0.13,Wunderground v.1.15,2013-08-09 12:15:00,
2013-08-09 08:25:00,72.1,72.1,29.86,NNE,30,0.0,0.0,100,0.00,,,0.13,Wunderground v.1.15,2013-08-09 12:25:00,
2013-08-09 08:35:00,72.3,72.0,29.86,SSW,212,0.0,0.0,99,0.00,,,0.13,Wunderground v.1.15,2013-08-09 12:35:00,
2013-08-09 08:45:00,72.4,72.1,29.86,East,100,0.0,0.0,99,0.00,,,0.13,Wunderground v.1.15,2013-08-09 12:45:00,
2013-08-09 08:50:00,72.4,72.1,29.86,East,100,0.0,0.0,99,0.00,,,0.13,Wunderground v.1.15,2013-08-09 12:50:00,
2013-08-09 09:00:00,72.8,72.5,29.86,East,100,0.0,0.0,99,0.00,,,0.13,Wunderground v.1.15,2013-08-09 13:00:00,
2013-08-09 09:05:00,72.8,72.5,29.85,East,100,0.0,0.0,99,0.00,,,0.13,Wunderground v.1.15,2013-08-09 13:05:00,
2013-08-09 09:15:00,72.9,72.6,29.85,East,100,0.0,0.0,99,0.00,,,0.13,Wunderground v.1.15,2013-08-09 13:15:00,
2013-08-09 09:25:00,73.3,73.3,29.85,East,100,0.0,0.0,100,0.00,,,0.13,Wunderground v.1.15,2013-08-09 13:25:00,
2013-08-09 09:35:00,73.6,73.3,29.85,East,100,0.0,0.0,99,0.00,,,0.13,Wunderground v.1.15,2013-08-09 13:35:00,
2013-08-09 09:45:00,73.6,73.3,29.85,East,100,0.0,0.0,99,0.00,,,0.13,Wunderground v.1.15,2013-08-09 13:45:00,
2013-08-09 09:55:00,73.6,73.3,29.85,East,100,0.0,1.0,99,0.00,,,0.13,Wunderground v.1.15,2013-08-09 13:55:00,
2013-08-09 10:05:00,73.6,73.3,29.85,East,100,0.0,0.0,99,0.00,,,0.13,Wunderground v.1.15,2013-08-09 14:05:00,
2013-08-09 10:15:00,73.8,73.5,29.86,East,100,0.0,0.0,99,0.00,,,0.13,Wunderground v.1.15,2013-08-09 14:15:00,
2013-08-09 10:20:00,74.0,73.7,29.86,East,100,0.0,0.0,99,0.00,,,0.13,Wunderground v.1.15,2013-08-09 14:20:00,
2013-08-09 10:30:00,74.2,73.9,29.86,East,100,0.0,0.0,99,0.00,,,0.13,Wunderground v.1.15,2013-08-09 14:30:00,
2013-08-09 10:40:00,74.2,73.9,29.86,East,100,0.0,0.0,99,0.00,,,0.14,Wunderground v.1.15,2013-08-09 14:40:00,
2013-08-09 10:50:00,74.0,73.7,29.85,East,100,0.0,0.0,99,0.05,,,0.15,Wunderground v.1.15,2013-08-09 14:50:00,
2013-08-09 11:00:00,74.0,73.7,29.86,WSW,253,1.0,1.0,99,0.05,,,0.15,Wunderground v.1.15,2013-08-09 15:00:00,
2013-08-09 11:05:00,74.1,73.8,29.86,WSW,253,1.0,1.0,99,0.04,,,0.15,Wunderground v.1.15,2013-08-09 15:05:00,
2013-08-09 11:10:00,74.2,73.9,29.86,WSW,243,1.0,1.0,99,0.00,,,0.15,Wunderground v.1.15,2013-08-09 15:10:00,
2013-08-09 11:20:00,74.6,74.0,29.85,WSW,249,2.0,2.0,98,0.00,,,0.15,Wunderground v.1.15,2013-08-09 15:20:00,
2013-08-09 11:30:00,75.7,74.8,29.85,SSW,207,1.0,1.0,97,0.00,,,0.15,Wunderground v.1.15,2013-08-09 15:30:00,
2013-08-09 11:35:00,76.2,75.0,29.85,SW,230,1.0,1.0,96,0.00,,,0.15,Wunderground v.1.15,2013-08-09 15:35:00,
2013-08-09 11:40:00,76.3,73.8,29.85,SW,228,2.0,2.0,92,0.00,,,0.15,Wunderground v.1.15,2013-08-09 15:40:00,
2013-08-09 11:50:00,76.8,74.9,29.84,NW,315,0.0,1.0,94,0.00,,,0.16,Wunderground v.1.15,2013-08-09 15:50:00,
2013-08-09 12:00:00,76.6,73.4,29.85,SW,233,1.0,2.0,90,0.00,,,0.16,Wunderground v.1.15,2013-08-09 16:00:00,
2013-08-09 12:05:00,76.7,73.9,29.84,SW,234,2.0,2.0,91,0.00,,,0.16,Wunderground v.1.15,2013-08-09 16:05:00,
2013-08-09 12:15:00,76.8,74.3,29.85,WSW,241,2.0,2.0,92,0.00,,,0.16,Wunderground v.1.15,2013-08-09 16:15:00,
2013-08-09 12:25:00,76.3,72.8,29.85,WSW,247,2.0,2.0,89,0.00,,,0.16,Wunderground v.1.15,2013-08-09 16:25:00,
2013-08-09 12:35:00,75.9,72.8,29.85,WSW,247,1.0,3.0,90,0.00,,,0.16,Wunderground v.1.15,2013-08-09 16:35:00,
2013-08-09 12:45:00,75.5,72.4,29.85,NNW,331,1.0,4.0,90,0.00,,,0.16,Wunderground v.1.15,2013-08-09 16:45:00,
2013-08-09 12:50:00,75.2,72.4,29.85,SSW,197,1.0,4.0,91,0.00,,,0.16,Wunderground v.1.15,2013-08-09 16:50:00,
2013-08-09 13:00:00,74.9,71.8,29.86,SW,221,1.0,3.0,90,0.00,,,0.16,Wunderground v.1.15,2013-08-09 17:00:00,
2013-08-09 13:05:00,74.8,72.0,29.86,NNW,348,1.0,3.0,91,0.00,,,0.16,Wunderground v.1.15,2013-08-09 17:05:00,
2013-08-09 13:15:00,74.6,72.4,29.86,NNE,27,1.0,1.0,93,0.00,,,0.16,Wunderground v.1.15,2013-08-09 17:15:00,
2013-08-09 13:20:00,74.7,72.9,29.85,North,4,1.0,1.0,94,0.00,,,0.16,Wunderground v.1.15,2013-08-09 17:20:00,
2013-08-09 13:30:00,75.4,72.3,29.85,West,268,2.0,2.0,90,0.00,,,0.16,Wunderground v.1.15,2013-08-09 17:30:00,
2013-08-09 13:40:00,76.9,72.7,29.85,SW,226,3.0,4.0,87,0.00,,,0.16,Wunderground v.1.15,2013-08-09 17:40:00,
2013-08-09 13:45:00,77.5,73.7,29.85,SW,216,3.0,5.0,88,0.00,,,0.16,Wunderground v.1.15,2013-08-09 17:45:00,
2013-08-09 13:55:00,78.2,72.6,29.85,SW,226,3.0,4.0,83,0.00,,,0.16,Wunderground v.1.15,2013-08-09 17:55:00,
2013-08-09 14:05:00,78.9,72.6,29.85,SSW,208,4.0,4.0,81,0.00,,,0.16,Wunderground v.1.15,2013-08-09 18:05:00,
2013-08-09 14:15:00,79.6,73.3,29.84,SSW,199,3.0,3.0,81,0.00,,,0.16,Wunderground v.1.15,2013-08-09 18:15:00,
2013-08-09 14:20:00,79.6,71.4,29.85,SW,224,4.0,5.0,76,0.00,,,0.16,Wunderground v.1.15,2013-08-09 18:20:00,
2013-08-09 14:25:00,79.7,72.6,29.85,SE,133,4.0,5.0,79,0.00,,,0.16,Wunderground v.1.15,2013-08-09 18:25:00,
2013-08-09 14:35:00,80.0,73.6,29.85,South,174,1.0,2.0,81,0.00,,,0.16,Wunderground v.1.15,2013-08-09 18:35:00,
2013-08-09 14:45:00,79.9,73.5,29.85,NW,310,1.0,2.0,81,0.00,,,0.16,Wunderground v.1.15,2013-08-09 18:45:00,
2013-08-09 14:55:00,80.1,74.1,29.85,West,268,0.0,1.0,82,0.00,,,0.16,Wunderground v.1.15,2013-08-09 18:55:00,
2013-08-09 15:05:00,80.3,72.4,29.85,SSW,210,1.0,5.0,77,0.00,,,0.16,Wunderground v.1.15,2013-08-09 19:05:00,
2013-08-09 15:15:00,79.9,72.8,29.85,SW,224,3.0,5.0,79,0.00,,,0.16,Wunderground v.1.15,2013-08-09 19:15:00,
2013-08-09 15:25:00,78.5,71.4,29.85,SW,227,5.0,7.0,79,0.00,,,0.16,Wunderground v.1.15,2013-08-09 19:25:00,
2013-08-09 15:35:00,77.8,72.6,29.85,SSW,211,3.0,4.0,84,0.00,,,0.16,Wunderground v.1.15,2013-08-09 19:35:00,
2013-08-09 15:45:00,78.2,71.9,29.85,SSW,206,4.0,4.0,81,0.00,,,0.16,Wunderground v.1.15,2013-08-09 19:45:00,
2013-08-09 15:50:00,78.4,72.4,29.85,West,262,4.0,4.0,82,0.00,,,0.16,Wunderground v.1.15,2013-08-09 19:50:00,
2013-08-09 16:00:00,78.8,73.6,29.85,SW,233,4.0,4.0,84,0.00,,,0.16,Wunderground v.1.15,2013-08-09 20:00:00,
2013-08-09 16:05:00,79.2,72.9,29.85,SSW,192,3.0,4.0,81,0.00,,,0.16,Wunderground v.1.15,2013-08-09 20:05:00,
2013-08-09 16:15:00,79.2,72.5,29.84,WSW,241,3.0,5.0,80,0.00,,,0.16,Wunderground v.1.15,2013-08-09 20:15:00,
2013-08-09 16:25:00,79.5,73.2,29.84,SSW,207,2.0,3.0,81,0.00,,,0.16,Wunderground v.1.15,2013-08-09 20:25:00,
2013-08-09 16:35:00,80.3,74.7,29.84,WSW,237,2.0,4.0,83,0.00,,,0.16,Wunderground v.1.15,2013-08-09 20:35:00,
2013-08-09 16:45:00,80.2,72.7,29.84,SW,233,3.0,3.0,78,0.00,,,0.16,Wunderground v.1.15,2013-08-09 20:45:00,
2013-08-09 16:55:00,79.8,73.4,29.83,WSW,256,2.0,3.0,81,0.00,,,0.16,Wunderground v.1.15,2013-08-09 20:55:00,
2013-08-09 17:05:00,79.7,73.0,29.84,WSW,241,1.0,2.0,80,0.00,,,0.16,Wunderground v.1.15,2013-08-09 21:05:00,
2013-08-09 17:15:00,79.8,73.1,29.84,SSW,199,1.0,1.0,80,0.00,,,0.16,Wunderground v.1.15,2013-08-09 21:15:00,
2013-08-09 17:25:00,79.5,73.5,29.84,WSW,253,1.0,1.0,82,0.00,,,0.16,Wunderground v.1.15,2013-08-09 21:25:00,
2013-08-09 17:35:00,78.8,72.5,29.84,WSW,237,2.0,3.0,81,0.00,,,0.16,Wunderground v.1.15,2013-08-09 21:35:00,
2013-08-09 17:45:00,78.2,71.9,29.85,WSW,250,1.0,3.0,81,0.00,,,0.16,Wunderground v.1.15,2013-08-09 21:45:00,
2013-08-09 17:50:00,78.1,71.4,29.85,WNW,287,2.0,3.0,80,0.00,,,0.16,Wunderground v.1.15,2013-08-09 21:50:00,
2013-08-09 18:00:00,77.7,71.0,29.85,WSW,242,3.0,4.0,80,0.00,,,0.16,Wunderground v.1.15,2013-08-09 22:00:00,
2013-08-09 18:05:00,77.6,72.0,29.85,WSW,247,3.0,8.0,83,0.00,,,0.16,Wunderground v.1.15,2013-08-09 22:05:00,
2013-08-09 18:15:00,77.5,71.2,29.85,WSW,241,3.0,4.0,81,0.00,,,0.16,Wunderground v.1.15,2013-08-09 22:15:00,
2013-08-09 18:25:00,77.6,71.7,29.85,SSW,208,3.0,3.0,82,0.00,,,0.16,Wunderground v.1.15,2013-08-09 22:25:00,
2013-08-09 18:35:00,77.4,71.5,29.86,SW,236,2.0,3.0,82,0.00,,,0.16,Wunderground v.1.15,2013-08-09 22:35:00,
2013-08-09 18:45:00,77.1,70.8,29.87,NE,34,1.0,1.0,81,0.00,,,0.16,Wunderground v.1.15,2013-08-09 22:45:00,
2013-08-09 18:50:00,77.0,70.7,29.87,WNW,289,0.0,1.0,81,0.00,,,0.16,Wunderground v.1.15,2013-08-09 22:50:00,
2013-08-09 19:00:00,76.5,70.6,29.87,WNW,299,2.0,3.0,82,0.00,,,0.16,Wunderground v.1.15,2013-08-09 23:00:00,
2013-08-09 19:05:00,76.2,70.3,29.87,NNW,341,1.0,3.0,82,0.00,,,0.16,Wunderground v.1.15,2013-08-09 23:05:00,
2013-08-09 19:15:00,75.5,70.3,29.87,NNW,339,2.0,2.0,84,0.00,,,0.16,Wunderground v.1.15,2013-08-09 23:15:00,
2013-08-09 19:20:00,74.8,70.0,29.88,NW,305,2.0,4.0,85,0.00,,,0.16,Wunderground v.1.15,2013-08-09 23:20:00,
2013-08-09 19:30:00,74.0,70.2,29.87,WNW,300,2.0,2.0,88,0.00,,,0.16,Wunderground v.1.15,2013-08-09 23:30:00,
2013-08-09 19:40:00,73.6,70.8,29.88,West,274,0.0,0.0,91,0.00,,,0.16,Wunderground v.1.15,2013-08-09 23:40:00,
2013-08-09 19:50:00,73.1,70.6,29.88,North,4,0.0,1.0,92,0.00,,,0.17,Wunderground v.1.15,2013-08-09 23:50:00,
2013-08-09 19:55:00,72.9,70.8,29.87,North,4,0.0,1.0,93,0.00,,,0.17,Wunderground v.1.15,2013-08-09 23:55:00,
2013-08-09 20:05:00,72.5,70.7,29.88,ENE,66,0.0,1.0,94,0.00,,,0.17,Wunderground v.1.15,2013-08-10 00:05:00,
2013-08-09 20:15:00,72.2,70.4,29.88,NNE,33,0.0,0.0,94,0.00,,,0.17,Wunderground v.1.15,2013-08-10 00:15:00,
2013-08-09 20:25:00,72.0,70.5,29.89,NNE,31,0.0,1.0,95,0.00,,,0.17,Wunderground v.1.15,2013-08-10 00:25:00,
2013-08-09 20:35:00,71.7,70.2,29.89,NNE,31,0.0,0.0,95,0.00,,,0.17,Wunderground v.1.15,2013-08-10 00:35:00,
2013-08-09 20:45:00,71.6,70.1,29.89,NNE,31,0.0,0.0,95,0.00,,,0.17,Wunderground v.1.15,2013-08-10 00:45:00,
2013-08-09 20:50:00,71.5,70.0,29.89,NNE,21,0.0,0.0,95,0.00,,,0.17,Wunderground v.1.15,2013-08-10 00:50:00,
2013-08-09 20:55:00,71.5,70.0,29.89,NNE,21,0.0,0.0,95,0.00,,,0.17,Wunderground v.1.15,2013-08-10 00:55:00,
2013-08-09 21:05:00,71.3,69.8,29.89,NNE,21,0.0,0.0,95,0.00,,,0.17,Wunderground v.1.15,2013-08-10 01:05:00,
2013-08-09 21:15:00,71.2,69.7,29.90,NNE,14,0.0,0.0,95,0.00,,,0.17,Wunderground v.1.15,2013-08-10 01:15:00,
2013-08-09 21:25:00,71.1,69.9,29.90,NNE,14,0.0,0.0,96,0.00,,,0.17,Wunderground v.1.15,2013-08-10 01:25:00,
2013-08-09 21:35:00,71.0,69.8,29.91,NNE,31,0.0,1.0,96,0.00,,,0.17,Wunderground v.1.15,2013-08-10 01:35:00,
2013-08-09 21:45:00,70.9,69.7,29.90,NNE,31,0.0,1.0,96,0.00,,,0.17,Wunderground v.1.15,2013-08-10 01:45:00,
2013-08-09 21:55:00,70.8,69.6,29.91,NNE,31,0.0,0.0,96,0.00,,,0.17,Wunderground v.1.15,2013-08-10 01:55:00,
2013-08-09 22:05:00,70.7,69.5,29.91,NNE,31,0.0,0.0,96,0.00,,,0.17,Wunderground v.1.15,2013-08-10 02:05:00,
2013-08-09 22:15:00,70.8,69.6,29.91,NNE,31,0.0,1.0,96,0.00,,,0.17,Wunderground v.1.15,2013-08-10 02:15:00,
2013-08-09 22:25:00,70.7,69.5,29.91,NNE,31,0.0,0.0,96,0.00,,,0.17,Wunderground v.1.15,2013-08-10 02:25:00,
2013-08-09 22:35:00,70.6,69.4,29.92,NNE,31,0.0,0.0,96,0.00,,,0.17,Wunderground v.1.15,2013-08-10 02:35:00,
2013-08-09 22:40:00,70.6,69.4,29.91,NNE,31,0.0,0.0,96,0.00,,,0.17,Wunderground v.1.15,2013-08-10 02:40:00,
2013-08-09 22:50:00,70.5,69.3,29.92,NNE,31,0.0,0.0,96,0.00,,,0.17,Wunderground v.1.15,2013-08-10 02:50:00,
2013-08-09 23:00:00,70.5,69.6,29.92,NNW,337,0.0,0.0,97,0.00,,,0.17,Wunderground v.1.15,2013-08-10 03:00:00,
2013-08-09 23:05:00,70.5,69.6,29.93,NNW,337,1.0,1.0,97,0.00,,,0.17,Wunderground v.1.15,2013-08-10 03:05:00,
2013-08-09 23:15:00,70.4,69.5,29.92,NNW,333,0.0,1.0,97,0.00,,,0.17,Wunderground v.1.15,2013-08-10 03:15:00,
2013-08-09 23:25:00,70.4,69.5,29.93,NNW,333,0.0,0.0,97,0.00,,,0.17,Wunderground v.1.15,2013-08-10 03:25:00,
2013-08-09 23:35:00,70.4,69.5,29.93,NNW,337,0.0,0.0,97,0.00,,,0.17,Wunderground v.1.15,2013-08-10 03:35:00,
2013-08-09 23:40:00,70.3,69.4,29.93,NNW,337,0.0,0.0,97,0.00,,,0.17,Wunderground v.1.15,2013-08-10 03:40:00,
2013-08-09 23:50:00,70.3,69.4,29.93,NNW,337,0.0,0.0,97,0.00,,,0.17,Wunderground v.1.15,2013-08-10 03:50:00,